When you browse on this site, cookies collect data to enhance your experience and personalize the content and advertising you see.
Visit our Privacy Policy to learn more. By continuing to use the site, you agree to this use of cookies and data.
  • In Schweiz
  • Länderverzeichnis
  • Für 7 Tage
  • Wassertemperatur
  • Wetterkarte
  • Widgets
  • user-avatar
    Anmelden

    Stündliche Wetter Port Gentil

    Heute, 23 August, Freitag

    Zeit Temperatur Niederschläge Wind Luftdruck Luftfeuchtigkeit
    00:00 +26°C° 0 mm 6 m/S 761 mmHg 86%
    01:00 +26°C° 0 mm 6 m/S 761 mmHg 85%
    02:00 +26°C° 0 mm 6 m/S 761 mmHg 85%
    03:00 +26°C° 0 mm 7 m/S 760 mmHg 84%
    04:00 +26°C° 0 mm 7 m/S 760 mmHg 84%
    05:00 +26°C° 0 mm 6 m/S 760 mmHg 84%
    06:00 +26°C° 0 mm 6 m/S 761 mmHg 84%
    07:00 +26°C° 0 mm 6 m/S 761 mmHg 84%
    08:00 +27°C° 0 mm 6 m/S 761 mmHg 81%
    09:00 +28°C° 0 mm 6 m/S 761 mmHg 77%
    10:00 +28°C° 0 mm 6 m/S 762 mmHg 74%
    11:00 +28°C° 0 mm 6 m/S 761 mmHg 73%
    12:00 +28°C° 0 mm 6 m/S 761 mmHg 72%
    13:00 +29°C° 0 mm 6 m/S 760 mmHg 71%
    14:00 +28°C° 0 mm 6 m/S 760 mmHg 72%
    15:00 +28°C° 0 mm 6 m/S 759 mmHg 73%
    16:00 +28°C° 0 mm 6 m/S 759 mmHg 74%
    17:00 +28°C° 0 mm 6 m/S 760 mmHg 76%
    18:00 +27°C° 0 mm 6 m/S 760 mmHg 78%
    19:00 +27°C° 0 mm 6 m/S 761 mmHg 81%
    20:00 +27°C° 0 mm 6 m/S 761 mmHg 81%
    21:00 +27°C° 0 mm 6 m/S 761 mmHg 82%
    22:00 +26°C° 0 mm 6 m/S 762 mmHg 82%
    23:00 +26°C° 0.1 mm 6 m/S 762 mmHg 83%

    Morgen, 24 August, Samstag

    Zeit Temperatur Niederschläge Wind Luftdruck Luftfeuchtigkeit
    00:00 +26°C° 0.1 mm 6 m/S 762 mmHg 85%
    01:00 +26°C° 0.1 mm 6 m/S 762 mmHg 86%
    02:00 +26°C° 0.4 mm 6 m/S 761 mmHg 86%
    03:00 +26°C° 0.4 mm 5 m/S 761 mmHg 86%
    04:00 +26°C° 0.4 mm 5 m/S 760 mmHg 86%
    05:00 +26°C° 0.3 mm 4 m/S 761 mmHg 86%
    06:00 +25°C° 0.3 mm 4 m/S 761 mmHg 87%
    07:00 +25°C° 0.3 mm 3 m/S 762 mmHg 88%
    08:00 +26°C° 0.1 mm 2 m/S 762 mmHg 83%
    09:00 +27°C° 0.1 mm 2 m/S 762 mmHg 78%
    10:00 +28°C° 0.1 mm 2 m/S 762 mmHg 73%
    11:00 +28°C° 0.1 mm 1 m/S 762 mmHg 72%
    12:00 +29°C° 0.1 mm 1 m/S 762 mmHg 71%
    13:00 +29°C° 0.1 mm 1 m/S 761 mmHg 69%
    14:00 +28°C° 0.2 mm 1 m/S 761 mmHg 72%
    15:00 +28°C° 0.2 mm 2 m/S 760 mmHg 75%
    16:00 +27°C° 0.2 mm 2 m/S 759 mmHg 78%
    17:00 +27°C° 0 mm 2 m/S 760 mmHg 79%
    18:00 +27°C° 0 mm 2 m/S 760 mmHg 80%
    19:00 +27°C° 0 mm 2 m/S 760 mmHg 82%
    20:00 +27°C° 0.1 mm 2 m/S 761 mmHg 82%
    21:00 +26°C° 0.1 mm 2 m/S 761 mmHg 83%
    22:00 +26°C° 0.1 mm 1 m/S 761 mmHg 84%
    23:00 +26°C° 0.1 mm 1 m/S 761 mmHg 84%

    übermorgen, 25 August, Sonntag

    Zeit Temperatur Niederschläge Wind Luftdruck Luftfeuchtigkeit
    00:00 +26°C° 0.1 mm 1 m/S 761 mmHg 85%
    01:00 +26°C° 0.1 mm 1 m/S 761 mmHg 86%
    02:00 +26°C° 0.1 mm 2 m/S 761 mmHg 87%
    03:00 +26°C° 0.1 mm 2 m/S 760 mmHg 87%
    04:00 +26°C° 0.1 mm 2 m/S 760 mmHg 87%
    05:00 +26°C° 0.1 mm 2 m/S 760 mmHg 87%
    06:00 +26°C° 0.1 mm 1 m/S 761 mmHg 87%
    07:00 +26°C° 0.1 mm 1 m/S 761 mmHg 87%
    08:00 +27°C° 0 mm 1 m/S 761 mmHg 81%
    09:00 +28°C° 0 mm 1 m/S 761 mmHg 76%
    10:00 +27°C° 0 mm 0 m/S 762 mmHg 70%
    11:00 +29°C° 0 mm 1 m/S 761 mmHg 71%
    12:00 +29°C° 0 mm 2 m/S 761 mmHg 71%
    13:00 +29°C° 0 mm 3 m/S 761 mmHg 71%
    14:00 +29°C° 0 mm 3 m/S 760 mmHg 72%
    15:00 +29°C° 0 mm 4 m/S 760 mmHg 72%
    16:00 +29°C° 0 mm 4 m/S 759 mmHg 73%
    17:00 +28°C° 0 mm 4 m/S 759 mmHg 76%
    18:00 +27°C° 0 mm 4 m/S 759 mmHg 80%
    19:00 +27°C° 0 mm 4 m/S 760 mmHg 83%
    20:00 +27°C° 0 mm 4 m/S 760 mmHg 84%
    21:00 +27°C° 0 mm 4 m/S 760 mmHg 85%
    22:00 +27°C° 0 mm 3 m/S 761 mmHg 85%
    23:00 +27°C° 0.1 mm 3 m/S 761 mmHg 85%

    26 August, Montag

    Zeit Temperatur Niederschläge Wind Luftdruck Luftfeuchtigkeit
    00:00 +27°C° 0.1 mm 3 m/S 761 mmHg 85%
    01:00 +27°C° 0.1 mm 3 m/S 761 mmHg 85%
    02:00 +26°C° 0.4 mm 3 m/S 761 mmHg 86%
    03:00 +26°C° 0.4 mm 3 m/S 761 mmHg 86%
    04:00 +26°C° 0.4 mm 2 m/S 760 mmHg 86%
    05:00 +26°C° 0.7 mm 2 m/S 761 mmHg 86%
    06:00 +26°C° 0.7 mm 2 m/S 761 mmHg 85%
    07:00 +26°C° 0.7 mm 3 m/S 761 mmHg 84%
    08:00 +27°C° 0 mm 2 m/S 761 mmHg 80%
    09:00 +28°C° 0 mm 2 m/S 762 mmHg 75%
    10:00 +29°C° 0 mm 2 m/S 762 mmHg 70%
    11:00 +29°C° 0 mm 3 m/S 761 mmHg 70%
    12:00 +29°C° 0 mm 3 m/S 761 mmHg 69%
    13:00 +29°C° 0 mm 3 m/S 760 mmHg 69%
    14:00 +29°C° 0 mm 3 m/S 760 mmHg 69%
    15:00 +29°C° 0 mm 3 m/S 759 mmHg 70%
    16:00 +29°C° 0 mm 4 m/S 759 mmHg 71%
    17:00 +28°C° 0 mm 4 m/S 759 mmHg 75%
    18:00 +27°C° 0 mm 4 m/S 759 mmHg 79%
    19:00 +27°C° 0 mm 4 m/S 760 mmHg 83%
    20:00 +27°C° 0.1 mm 4 m/S 760 mmHg 83%
    21:00 +27°C° 0.1 mm 4 m/S 761 mmHg 84%
    22:00 +26°C° 0.1 mm 4 m/S 761 mmHg 85%
    23:00 +26°C° 0.1 mm 5 m/S 761 mmHg 85%

    27 August, Dienstag

    Zeit Temperatur Niederschläge Wind Luftdruck Luftfeuchtigkeit
    00:00 +26°C° 0.1 mm 5 m/S 761 mmHg 85%
    01:00 +26°C° 0.1 mm 5 m/S 761 mmHg 85%
    02:00 +26°C° 0.2 mm 5 m/S 761 mmHg 85%
    03:00 +26°C° 0.2 mm 5 m/S 761 mmHg 86%
    04:00 +26°C° 0.2 mm 5 m/S 761 mmHg 86%
    05:00 +26°C° 0.2 mm 5 m/S 761 mmHg 86%
    06:00 +26°C° 0.2 mm 5 m/S 761 mmHg 86%
    07:00 +26°C° 0.2 mm 5 m/S 761 mmHg 86%
    08:00 +27°C° 0 mm 5 m/S 762 mmHg 80%
    09:00 +28°C° 0 mm 5 m/S 762 mmHg 75%
    10:00 +29°C° 0 mm 5 m/S 762 mmHg 69%
    11:00 +30°C° 0 mm 5 m/S 762 mmHg 68%
    12:00 +30°C° 0 mm 4 m/S 761 mmHg 68%
    13:00 +30°C° 0 mm 4 m/S 760 mmHg 67%
    14:00 +30°C° 0 mm 5 m/S 760 mmHg 68%
    15:00 +29°C° 0 mm 5 m/S 759 mmHg 70%
    16:00 +29°C° 0 mm 5 m/S 759 mmHg 71%
    17:00 +28°C° 0.1 mm 5 m/S 759 mmHg 75%
    18:00 +27°C° 0.1 mm 5 m/S 759 mmHg 79%
    19:00 +27°C° 0.1 mm 5 m/S 759 mmHg 83%
    20:00 +27°C° 0 mm 5 m/S 760 mmHg 83%
    21:00 +26°C° 0 mm 5 m/S 760 mmHg 83%
    22:00 +26°C° 0 mm 5 m/S 761 mmHg 83%
    23:00 +26°C° 0 mm 4 m/S 761 mmHg 83%

    28 August, Mittwoch

    Zeit Temperatur Niederschläge Wind Luftdruck Luftfeuchtigkeit
    00:00 +26°C° 0 mm 4 m/S 761 mmHg 82%
    01:00 +26°C° 0 mm 4 m/S 761 mmHg 82%
    02:00 +26°C° 0.1 mm 4 m/S 761 mmHg 83%
    03:00 +26°C° 0.1 mm 4 m/S 761 mmHg 84%
    04:00 +26°C° 0.1 mm 4 m/S 760 mmHg 85%
    05:00 +26°C° 0.1 mm 4 m/S 761 mmHg 85%
    06:00 +26°C° 0.1 mm 4 m/S 761 mmHg 85%
    07:00 +26°C° 0.1 mm 4 m/S 761 mmHg 85%
    08:00 +27°C° 0 mm 4 m/S 761 mmHg 81%
    09:00 +28°C° 0 mm 4 m/S 761 mmHg 76%
    10:00 +28°C° 0 mm 4 m/S 761 mmHg 72%
    11:00 +29°C° 0 mm 4 m/S 761 mmHg 71%
    12:00 +29°C° 0 mm 5 m/S 760 mmHg 70%
    13:00 +29°C° 0 mm 5 m/S 760 mmHg 69%
    14:00 +29°C° 0 mm 5 m/S 759 mmHg 71%
    15:00 +28°C° 0 mm 5 m/S 759 mmHg 72%
    16:00 +28°C° 0 mm 6 m/S 758 mmHg 73%
    17:00 +27°C° 0 mm 6 m/S 759 mmHg 75%
    18:00 +27°C° 0 mm 6 m/S 759 mmHg 78%
    19:00 +26°C° 0 mm 6 m/S 760 mmHg 80%
    20:00 +26°C° 0 mm 6 m/S 760 mmHg 81%
    21:00 +26°C° 0 mm 6 m/S 761 mmHg 81%
    22:00 +26°C° 0 mm 6 m/S 761 mmHg 82%
    23:00 +26°C° 0 mm 5 m/S 761 mmHg 82%
    Mehr zeigen